Weather History for KJVL - March, 2013

Change the Weather History Date:

Friday, March 29, 2013

  Actual Average Record
Temperature  
Mean Temperature 40 °F -  
Max Temperature 51 °F 49 °F 69 °F (2005)
Min Temperature 30 °F 30 °F 23 °F (1991)
Degree Days  
Heating Degree Days 24    
Moisture  
Dew Point 26 °F    
Average Humidity 67    
Maximum Humidity 87    
Minimum Humidity 28    
Precipitation  
Precipitation 0.00 in - - ()
Sea Level Pressure  
Sea Level Pressure 30.27 in    
Wind  
Wind Speed 2 mph (WSW)    
Max Wind Speed 9 mph    
Max Gust Speed -    
Visibility 10 miles    
Events      
Averages and records for this station are not official NWS values.
T = Trace of Precipitation, MM = Missing Value Source: NWS Daily Summary

Daily Weather History Graph

Daily Weather History Graph

Search for Another Location

Airport or City:

Trip Planner

Search our weather history database for the weather conditions in past years. The results will help you decide how hot, cold, wet, or windy it might be!

Date:

Astronomy

Mar. 29, 2013 Rise Set
Actual Time 6:43 AM CDT 7:19 PM CDT
Civil Twilight 6:14 AM CDT 7:47 PM CDT
Nautical Twilight 5:41 AM CDT 8:21 PM CDT
Astronomical Twilight 5:06 AM CDT 8:55 PM CDT
Moon 10:23 PM CDT (3/29) 7:48 AM CDT (3/29)
Length of Visible Light 13h 32m
Length of Day
12h 35m
Waning Gibbous, 93% of the Moon is Illuminated
Mar 29
Waning Gibbous
Apr 2
Last Quarter
Apr 10
New
Apr 18
First Quarter
Apr 25
Full

Hourly Weather History & Observations

Time (CDT) Temp. Windchill Dew Point Humidity Pressure Visibility Wind Dir Wind Speed Gust Speed Precip Events Conditions
12:15 AM 35.6 °F - 28.4 °F 75% 30.30 in 10.0 mi Calm Calm - N/A   Overcast
12:35 AM 33.8 °F - 28.4 °F 81% 30.30 in 10.0 mi Calm Calm - N/A   Overcast
12:55 AM 33.8 °F - 28.4 °F 81% 30.30 in 10.0 mi Calm Calm - N/A   Overcast
1:15 AM 35.6 °F - 28.4 °F 75% 30.30 in 10.0 mi Calm Calm - N/A   Overcast
1:55 AM 33.8 °F - 26.6 °F 75% 30.30 in 10.0 mi Calm Calm - N/A   Overcast
2:15 AM 33.8 °F - 26.6 °F 75% 30.30 in 10.0 mi Calm Calm - N/A   Overcast
2:35 AM 33.8 °F - 28.4 °F 81% 30.30 in 10.0 mi Calm Calm - N/A   Overcast
2:55 AM 33.8 °F - 28.4 °F 81% 30.29 in 10.0 mi Calm Calm - N/A   Overcast
3:55 AM 33.8 °F - 28.4 °F 81% 30.29 in 10.0 mi Calm Calm - N/A   Overcast
4:15 AM 33.8 °F - 28.4 °F 81% 30.29 in 10.0 mi Calm Calm - N/A   Overcast
4:35 AM 33.8 °F - 28.4 °F 81% 30.28 in 10.0 mi Calm Calm - N/A   Overcast
5:15 AM 32.0 °F - 28.4 °F 87% 30.28 in 10.0 mi Calm Calm - N/A   Clear
5:35 AM 32.0 °F - 26.6 °F 80% 30.28 in 10.0 mi Calm Calm - N/A   Clear
5:45 AM 32.0 °F - 26.6 °F 80% 30.28 in 10.0 mi Calm Calm - N/A   Clear
6:45 AM 30.2 °F - 26.6 °F 86% 30.30 in 7.0 mi Calm Calm - N/A   Clear
7:45 AM 30.2 °F - 26.6 °F 86% 30.31 in 7.0 mi Calm Calm - N/A   Clear
8:45 AM 37.4 °F - 30.2 °F 75% 30.31 in 10.0 mi Calm Calm - N/A   Clear
9:45 AM 42.8 °F 40.1 °F 24.8 °F 49% 30.31 in 10.0 mi NW 4.6 mph - N/A   Clear
10:45 AM 44.6 °F 42.2 °F 24.8 °F 46% 30.32 in 10.0 mi WNW 4.6 mph - N/A   Clear
11:45 AM 46.4 °F 42.9 °F 24.8 °F 43% 30.31 in 10.0 mi NNW 6.9 mph - N/A   Clear
1:45 PM 50.0 °F - 21.2 °F 32% 30.27 in 10.0 mi SW 6.9 mph - N/A   Clear
2:45 PM 51.8 °F - 21.2 °F 30% 30.26 in 10.0 mi WNW 5.8 mph - N/A   Clear
3:45 PM 51.8 °F - 21.2 °F 30% 30.24 in 10.0 mi West 6.9 mph - N/A   Clear
4:45 PM 51.8 °F - 19.4 °F 28% 30.23 in 10.0 mi WNW 8.1 mph - N/A   Clear
5:45 PM 50.0 °F - 19.4 °F 30% 30.23 in 10.0 mi NW 6.9 mph - N/A   Clear
6:45 PM 44.6 °F 39.7 °F 24.8 °F 46% 30.23 in 10.0 mi ENE 9.2 mph - N/A   Partly Cloudy
8:45 PM 35.6 °F 31.7 °F 23.0 °F 60% 30.22 in 10.0 mi South 4.6 mph - N/A   Scattered Clouds
9:15 PM 35.6 °F 31.7 °F 28.4 °F 75% 30.23 in 10.0 mi East 4.6 mph - N/A   Clear
9:35 PM 35.6 °F - 26.6 °F 70% 30.23 in 10.0 mi Calm Calm - N/A   Clear
10:15 PM 35.6 °F - 26.6 °F 70% 30.23 in 10.0 mi Calm Calm - N/A   Clear
10:35 PM 35.6 °F 32.8 °F 26.6 °F 70% 30.24 in 10.0 mi SE 3.5 mph - N/A   Clear
10:55 PM 35.6 °F 31.7 °F 28.4 °F 75% 30.24 in 10.0 mi SE 4.6 mph - N/A   Clear
11:15 PM 33.8 °F 29.6 °F 26.6 °F 75% 30.23 in 10.0 mi SE 4.6 mph - N/A   Clear
11:35 PM 33.8 °F 29.6 °F 26.6 °F 75% 30.23 in 10.0 mi SE 4.6 mph - N/A   Clear